Powrót do katalogu

SES 16/GOVSAT 1

AktywnyMilitariaGEO
NORAD 43178·PAYLOAD·🇱🇺 Luxembourg

Wystrzelony Jan 31, 2018 z Cape Canaveral Space Force Station

Loading…

TLE

ŚwieżeSource: Mike McCants

Epoka: Sep 14, 2026, 20:55 UTC

1 43178U 18013A   26257.87190335  .00000000  00000-0  00000-0 0    07
2 43178   0.0152 328.9247 0023733 128.2860 231.9450  1.00270000   344

Śledź SES 16/GOVSAT 1 w czasie rzeczywistym z AllMySat

Download on the App Store